DW4839 Weather Reports


time (UTC)temp
C
wind
direction
speed
KPH
gust
KPH
rain 1hr
cm
rain 24hr
cm
rain mn
cm
humidity
%
barometer
mb
20200531071529 9 57 1.6 0.0 0.00 0.00 0.03 97 1015.1
20200531070110 9 251 1.6 0.0 0.00 0.00 0.00 96 1015.1
20200531064705 9 208 3.2 0.0 0.00 0.00 0.97 97 1015.1
20200531063139 9 198 4.8 0.0 0.00 0.00 0.97 96 1015.1
20200531061624 9 202 6.4 0.0 0.00 0.00 0.97 96 1015.2
20200531060127 9 220 3.2 0.0 0.00 0.00 0.97 96 1015.2
20200531054658 9 199 4.8 0.0 0.00 0.00 0.97 96 1015.1
20200531053208 9 184 3.2 0.0 0.00 0.00 0.97 96 1015.0
20200531051609 9 240 4.8 0.0 0.00 0.00 0.97 96 1014.7
20200531050110 9 180 3.2 0.0 0.00 0.00 0.94 96 1014.6
20200531044651 9 244 3.2 0.0 0.00 0.00 0.94 96 1014.6
20200531043051 10 102 3.2 0.0 0.00 0.00 0.94 95 1014.4
20200531041646 10 245 3.2 0.0 0.00 0.00 0.91 96 1014.4
20200531040055 10 216 4.8 0.0 0.00 0.00 0.91 95 1014.3
20200531034534 10 176 4.8 0.0 0.00 0.00 0.91 96 1014.0
20200531033105 10 250 3.2 0.0 0.00 0.00 0.91 96 1014.0
20200531031528 10 170 1.6 0.0 0.00 0.00 0.91 96 1014.0
20200531030102 10 219 4.8 0.0 0.00 0.00 0.91 95 1014.0
20200531024521 10 277 4.8 0.0 0.00 0.00 0.91 95 1013.7
20200531023012 10 174 6.4 0.0 0.00 0.00 0.91 95 1013.7
20200531021509 10 186 4.8 0.0 0.00 0.00 0.91 95 1013.5
20200531020012 10 200 3.2 0.0 0.00 0.00 0.91 95 1013.3
20200531014508 10 169 3.2 0.0 0.00 0.00 0.91 95 1013.3
20200531013010 10 171 3.2 0.0 0.00 0.00 0.91 95 1013.1
20200531011520 10 11 0.0 0.0 0.00 0.00 0.91 95 1013.1
20200531010008 10 12 1.6 0.0 0.00 0.00 0.91 95 1013.1
20200531004620 10 12 1.6 0.0 0.00 0.00 0.91 94 1013.1
20200531003113 10 58 0.0 0.0 0.00 0.00 0.91 95 1012.9
20200531001755 10 83 0.0 0.0 0.00 0.00 0.91 95 1012.7
20200531000142 10 70 0.0 0.0 0.00 0.00 0.91 95 1012.8
20200530234708 10 79 0.0 0.0 0.00 0.00 0.91 95 1012.8
20200530233111 10 168 3.2 0.0 0.00 0.00 0.91 94 1013.1
20200530231620 10 5 4.8 0.0 0.00 0.00 0.89 91 1011.5
20200530230353 11 15 3.2 0.0 0.00 0.00 0.79 92 1012.9
20200530224600 11 348 4.8 0.0 0.00 0.00 0.58 92 1013.3
20200530223101 11 198 8.0 0.0 0.00 0.00 0.41 90 1013.0
20200530221534 11 196 9.7 0.0 0.00 0.00 0.25 87 1013.0
20200530220044 12 193 6.4 0.0 0.00 0.00 0.20 85 1012.2
20200530214609 12 217 6.4 0.0 0.00 0.00 0.18 82 1011.4
20200530213103 12 186 3.2 0.0 0.00 0.00 0.18 85 1011.0
20200530211543 13 198 1.6 0.0 0.00 0.00 0.15 77 1009.9
20200530210042 13 191 3.2 0.0 0.00 0.00 0.15 75 1009.7
20200530204525 13 220 3.2 0.0 0.00 0.00 0.15 73 1009.8
20200530203050 14 184 1.6 0.0 0.00 0.00 0.15 72 1009.5
20200530201509 13 5 1.6 0.0 0.00 0.00 0.15 77 1009.4
20200530200010 13 112 1.6 0.0 0.00 0.00 0.15 78 1009.4
20200530194530 14 209 3.2 0.0 0.00 0.00 0.15 74 1009.5
20200530193010 15 163 4.8 0.0 0.00 0.00 0.15 71 1009.3
20200530191508 15 193 3.2 0.0 0.00 0.00 0.15 76 1009.3
20200530190004 13 234 3.2 0.0 0.00 0.00 0.15 80 1009.3
20200530184610 14 230 1.6 0.0 0.00 0.00 0.15 82 1009.3
20200530183142 13 108 3.2 0.0 0.00 0.00 0.15 80 1009.0
20200530181546 13 30 1.6 0.0 0.00 0.00 0.15 80 1008.7
20200530180033 12 92 3.2 0.0 0.00 0.00 0.15 86 1008.5
20200530174532 12 21 1.6 0.0 0.00 0.00 0.15 86 1008.5
20200530173108 11 346 3.2 0.0 0.00 0.00 0.15 88 1008.2
20200530171544 12 342 3.2 0.0 0.00 0.00 0.15 86 1007.9
20200530170024 11 349 6.4 0.0 0.00 0.00 0.15 86 1007.8
20200530164531 11 355 8.0 0.0 0.00 0.00 0.15 86 1007.7
20200530163051 12 5 8.0 0.0 0.00 0.00 0.15 88 1007.6
20200530161514 11 40 11.3 0.0 0.00 0.00 0.15 87 1008.0
20200530160023 11 17 9.7 0.0 0.00 0.00 0.15 88 1008.0
20200530154636 11 288 4.8 0.0 0.00 0.00 0.15 92 1008.0
20200530153139 10 14 1.6 0.0 0.00 0.00 0.15 93 1008.4
20200530151634 10 34 4.8 0.0 0.00 0.00 0.15 94 1008.3
20200530150226 10 5 11.3 0.0 0.00 0.00 0.15 93 1007.8
20200530144645 10 21 6.4 0.0 0.00 0.00 0.15 93 1008.7
20200530143152 10 23 11.3 0.0 0.00 0.00 0.15 92 1008.5
20200530141631 10 57 8.0 0.0 0.00 0.00 0.15 91 1008.6
20200530140133 10 349 8.0 0.0 0.00 0.00 0.13 90 1007.1
20200530134541 10 274 1.6 0.0 0.00 0.00 0.10 88 1008.9
20200530133031 10 190 3.2 0.0 0.00 0.00 0.08 87 1010.1
20200530131540 10 230 3.2 0.0 0.00 0.00 0.08 84 1010.1
20200530130023 10 190 4.8 0.0 0.00 0.00 0.00 80 1010.5
20200530124521 10 20 1.6 0.0 0.00 0.00 0.00 80 1008.5
20200530123033 10 13 3.2 0.0 0.00 0.00 0.00 79 1008.1
20200530121549 11 14 4.8 0.0 0.00 0.00 0.00 78 1008.3
20200530120015 11 360 6.4 0.0 0.00 0.00 0.00 77 1008.2
20200530114634 11 12 8.0 0.0 0.00 0.00 0.00 77 1008.0
20200530113132 11 5 9.7 0.0 0.00 0.00 0.00 76 1008.0
20200530111707 11 360 6.4 0.0 0.00 0.00 0.00 76 1008.0
20200530110218 11 336 4.8 0.0 0.00 0.00 0.00 76 1008.0
20200530104621 11 360 8.0 0.0 0.00 0.00 0.00 74 1007.7
20200530103142 12 333 9.7 0.0 0.00 0.00 0.00 73 1007.5
20200530101724 12 13 8.0 0.0 0.00 0.00 0.00 73 1007.6
20200530100217 12 355 4.8 0.0 0.00 0.00 0.00 72 1007.9
20200530094551 12 338 4.8 0.0 0.00 0.00 0.00 71 1007.5
20200530093056 12 355 4.8 0.0 0.00 0.00 0.00 71 1007.3
20200530091538 12 344 4.8 0.0 0.00 0.00 0.00 70 1007.6
20200530090027 12 14 6.4 0.0 0.00 0.00 0.00 69 1007.6
20200530084540 12 339 4.8 0.0 0.00 0.00 0.00 69 1007.7
20200530083021 13 344 4.8 0.0 0.00 0.00 0.00 68 1007.8
20200530081524 13 336 6.4 0.0 0.00 0.00 0.00 66 1007.9
20200530080037 13 344 4.8 0.0 0.00 0.00 0.00 66 1007.9
20200530074503 13 351 8.0 0.0 0.00 0.00 0.00 66 1008.0
20200530073219 13 12 6.4 0.0 0.00 0.00 0.00 65 1008.0